Date String (YYYY-MM-DD hh:mm:ss) UTC,Instrument flags,absolute air pressure of the measurement (hPa),sample flow rate (lpm),inlet stack bypass flow (lpm),air temperature of the measurement (°C),ambient temperature measured by the external sensor (°C),aerosol sample conditioner tube jacket temperature (°C),OPC LED temperature (°C),internal box temperature (°C),relative humidity of the measurement (%),span deviation,mass concentration of particles derived from Lorenz-Mie calculation of OPC scattering (μg/m³),mass concentration of particles derived from Lorenz-Mie calculation of OPC scattering (μg/m³),mass concentration of particles derived from Lorenz-Mie calculation of OPC scattering (μg/m³)
DateTimeUTC,F1_M11,P_M11,Q1_M11,Q2_M11,T1_M11,T2_M11,T3_M11,T4_M11,T5_M11,U1_M11,ZSPAN_M11,X0_M11,X2_M11,X1_M11
2024-06-13 14:00:00,SystemResetWarning,0830.6,5.00,000.00,030.0,029.4,000.0,038.2,031.8,022.4,0000.0,0016.00,0005.69,0004.48
2024-06-13 14:01:00,SystemResetWarning,0830.6,5.00,000.00,030.0,029.5,000.0,038.2,031.8,023.4,0000.0,0015.01,0005.69,0004.46
2024-06-13 14:02:00,SystemResetWarning,0830.6,5.00,000.00,030.1,029.6,000.0,038.2,031.9,023.6,0000.0,0014.93,0005.63,0004.45
2024-06-13 14:03:00,SystemResetWarning,0830.6,5.00,000.00,030.1,029.6,000.0,038.2,031.9,023.1,0000.0,0014.84,0005.59,0004.43
2024-06-13 14:04:00,SystemResetWarning,0830.7,5.01,000.00,030.2,029.7,000.0,038.3,032.0,023.5,0000.0,0014.43,0005.55,0004.43
2024-06-13 14:05:00,SystemResetWarning,0830.6,5.00,000.00,030.2,029.5,000.0,038.3,031.8,023.2,0000.0,0014.85,0005.51,0004.44
2024-06-13 14:06:00,SystemResetWarning,0830.7,4.99,000.00,030.0,027.7,000.0,038.4,030.9,022.7,0000.0,0014.48,0005.41,0004.43
2024-06-13 14:07:00,SystemResetWarning,0830.5,5.01,000.00,029.6,026.5,000.0,038.4,030.4,023.8,0000.0,0014.40,0005.40,0004.42
2024-06-13 14:08:00,SystemResetWarning,0830.5,5.02,000.00,029.5,027.0,000.0,038.4,030.5,023.5,0000.0,0014.29,0005.40,0004.43
2024-06-13 14:09:00,SystemResetWarning,0830.7,4.99,000.00,029.5,027.4,000.0,038.2,030.7,023.3,0000.0,0014.28,0005.42,0004.42
2024-06-13 14:10:00,SystemResetWarning,0830.7,5.00,000.00,029.5,027.8,000.0,038.2,030.9,022.4,0000.0,0015.18,0005.44,0004.44
2024-06-13 14:11:00,SystemResetWarning,0830.6,5.00,000.00,029.6,028.1,000.0,038.1,031.1,022.2,0000.0,0015.29,0005.47,0004.47
2024-06-13 14:12:00,SystemResetWarning,0830.6,5.01,000.00,029.6,028.4,000.0,038.1,031.2,021.9,0000.0,0015.79,0005.47,0004.48
2024-06-13 14:13:00,SystemResetWarning,0830.5,4.99,000.00,029.7,028.6,000.0,038.1,031.3,022.0,0000.0,0014.85,0005.46,0004.49
2024-06-13 14:14:00,SystemResetWarning,0830.5,5.00,000.00,029.7,028.8,000.0,038.1,031.4,021.7,0000.0,0014.55,0005.48,0004.50
2024-06-13 14:15:00,SystemResetWarning,0830.6,5.00,000.00,029.8,029.0,000.0,038.1,031.5,022.8,0000.0,0014.37,0005.48,0004.51
2024-06-13 14:16:00,SystemResetWarning,0830.6,5.00,000.00,029.8,029.1,000.0,038.1,031.6,022.8,0000.0,0013.81,0005.51,0004.51
2024-06-13 14:17:00,SystemResetWarning,0830.7,5.00,000.00,029.9,029.3,000.0,038.1,031.7,023.2,0000.0,0014.03,0005.59,0004.50
2024-06-13 14:18:00,SystemResetWarning,0830.7,5.01,000.00,030.0,029.4,000.0,038.1,031.7,024.0,0000.0,0014.17,0005.65,0004.51
2024-06-13 14:19:00,SystemResetWarning,0830.7,5.01,000.00,030.0,029.5,000.0,038.1,031.8,024.3,0000.0,0013.27,0005.66,0004.50
2024-06-13 14:20:00,SystemResetWarning,0830.7,4.99,000.00,030.1,029.6,000.0,038.2,031.8,023.5,0000.0,0012.69,0005.62,0004.52
2024-06-13 14:21:00,SystemResetWarning,0830.7,4.99,000.00,030.1,029.6,000.0,038.2,031.9,023.6,0000.0,0011.89,0005.64,0004.53
2024-06-13 14:22:00,SystemResetWarning,0830.6,5.00,000.00,030.1,028.7,000.0,038.3,031.4,023.4,0000.0,0011.75,0005.61,0004.52
2024-06-13 14:23:00,SystemResetWarning,0830.5,5.00,000.00,029.7,026.7,000.0,038.3,030.4,023.7,0000.0,0011.48,0005.64,0004.55
2024-06-13 14:24:00,SystemResetWarning,0830.6,5.02,000.00,029.4,026.6,000.0,038.3,030.3,024.9,0000.0,0011.60,0005.69,0004.57
2024-06-13 14:25:00,SystemResetWarning,0830.6,5.00,000.00,029.4,027.1,000.0,038.2,030.5,025.0,0000.0,0011.84,0005.74,0004.59
2024-06-13 14:26:00,SystemResetWarning,0830.7,5.00,000.00,029.4,027.5,000.0,038.1,030.8,025.0,0000.0,0012.68,0005.75,0004.59
2024-06-13 14:27:00,SystemResetWarning,0830.7,5.00,000.00,029.5,027.9,000.0,038.0,031.0,024.5,0000.0,0012.71,0005.74,0004.61
2024-06-13 14:28:00,SystemResetWarning,0830.7,4.99,000.00,029.5,028.2,000.0,038.0,031.1,023.8,0000.0,0013.03,0005.76,0004.62
2024-06-13 14:29:00,SystemResetWarning,0830.7,5.00,000.00,029.6,028.5,000.0,038.0,031.2,023.1,0000.0,0013.51,0005.74,0004.63
2024-06-13 14:30:00,SystemResetWarning,0830.7,5.01,000.00,029.6,028.7,000.0,038.0,031.3,022.7,0000.0,0013.71,0005.73,0004.63
2024-06-13 14:31:00,SystemResetWarning,0830.7,5.00,000.00,029.7,028.9,000.0,038.0,031.4,021.6,0000.0,0014.29,0005.75,0004.62
2024-06-13 14:32:00,SystemResetWarning,0830.8,5.00,000.00,029.8,029.1,000.0,038.0,031.5,021.4,0000.0,0014.54,0005.75,0004.61
2024-06-13 14:33:00,SystemResetWarning,0830.9,5.00,000.00,029.8,029.2,000.0,038.0,031.6,021.9,0000.0,0014.79,0005.77,0004.59
2024-06-13 14:34:00,SystemResetWarning,0830.9,5.00,000.00,029.9,029.3,000.0,038.0,031.7,024.0,0000.0,0015.72,0005.81,0004.58
2024-06-13 14:35:00,SystemResetWarning,0830.9,5.00,000.00,030.0,029.4,000.0,038.1,031.7,025.1,0000.0,0016.13,0005.90,0004.60
2024-06-13 14:36:00,SystemResetWarning,0830.9,4.99,000.00,030.0,029.2,000.0,038.1,031.6,024.9,0000.0,0016.73,0005.99,0004.62
2024-06-13 14:37:00,SystemResetWarning,0830.9,4.99,000.00,029.7,027.3,000.0,038.2,030.7,025.0,0000.0,0017.55,0006.07,0004.66
2024-06-13 14:38:00,SystemResetWarning,0830.9,5.02,000.00,029.4,026.3,000.0,038.2,030.2,025.8,0000.0,0018.67,0006.14,0004.68
2024-06-13 14:39:00,SystemResetWarning,0830.9,4.99,000.00,029.3,026.8,000.0,038.1,030.4,023.4,0000.0,0021.79,0006.20,0004.73
2024-06-13 14:40:00,SystemResetWarning,0830.9,4.99,000.00,029.3,027.2,000.0,038.0,030.6,022.8,0000.0,0022.58,0006.23,0004.75
2024-06-13 14:41:00,SystemResetWarning,0830.9,5.00,000.00,029.3,027.6,000.0,037.9,030.8,023.3,0000.0,0023.72,0006.34,0004.78
2024-06-13 14:42:00,SystemResetWarning,0830.9,5.00,000.00,029.4,027.9,000.0,037.9,030.9,023.2,0000.0,0024.67,0006.38,0004.82
2024-06-13 14:43:00,SystemResetWarning,0831.0,5.01,000.00,029.4,028.2,000.0,037.8,031.1,022.4,0000.0,0024.50,0006.41,0004.85
2024-06-13 14:44:00,SystemResetWarning,0831.0,4.99,000.00,029.5,028.5,000.0,037.8,031.2,022.0,0000.0,0024.40,0006.42,0004.89
2024-06-13 14:45:00,SystemResetWarning,0831.0,5.00,000.00,029.5,028.7,000.0,037.8,031.3,021.6,0000.0,0023.47,0006.44,0004.93
2024-06-13 14:46:00,SystemResetWarning,0831.0,5.00,000.00,029.6,028.9,000.0,037.9,031.4,021.9,0000.0,0022.80,0006.36,0004.94
2024-06-13 14:47:00,SystemResetWarning,0831.1,5.01,000.00,029.7,029.0,000.0,037.9,031.4,022.9,0000.0,0022.57,0006.27,0004.93
2024-06-13 14:48:00,SystemResetWarning,0831.0,5.00,000.00,029.7,029.2,000.0,037.9,031.5,023.2,0000.0,0021.21,0006.17,0004.93
2024-06-13 14:49:00,SystemResetWarning,0831.0,5.00,000.00,029.8,029.3,000.0,037.9,031.6,022.7,0000.0,0020.57,0006.10,0004.93
2024-06-13 14:50:00,SystemResetWarning,0831.1,4.99,000.00,029.8,028.8,000.0,038.0,031.3,023.1,0000.0,0017.91,0006.05,0004.91
2024-06-13 14:51:00,SystemResetWarning,0830.9,5.00,000.00,029.5,026.8,000.0,038.1,030.3,023.7,0000.0,0017.16,0006.07,0004.95
2024-06-13 14:52:00,SystemResetWarning,0830.9,5.02,000.00,029.2,026.1,000.0,038.0,029.9,024.8,0000.0,0016.49,0006.01,0004.97
2024-06-13 14:53:00,SystemResetWarning,0830.9,4.99,000.00,029.1,026.6,000.0,038.0,030.1,025.2,0000.0,0016.25,0006.00,0004.99
2024-06-13 14:54:00,SystemResetWarning,0831.0,4.99,000.00,029.1,027.0,000.0,037.8,030.4,025.9,0000.0,0017.42,0006.01,0005.01
2024-06-13 14:55:00,SystemResetWarning,0831.1,5.00,000.00,029.1,027.4,000.0,037.8,030.6,024.9,0000.0,0017.81,0006.06,0005.05
2024-06-13 14:56:00,SystemResetWarning,0831.2,5.01,000.00,029.2,027.8,000.0,037.7,030.8,024.6,0000.0,0017.79,0006.08,0005.08
2024-06-13 14:57:00,SystemResetWarning,0831.1,5.00,000.00,029.3,028.1,000.0,037.7,030.9,025.7,0000.0,0017.79,0006.12,0005.10
2024-06-13 14:58:00,SystemResetWarning,0831.2,5.00,000.00,029.3,028.4,000.0,037.7,031.0,025.6,0000.0,0019.03,0006.19,0005.13
2024-06-13 14:59:00,SystemResetWarning,0831.2,5.00,000.00,029.4,028.6,000.0,037.7,031.1,024.7,0000.0,0019.74,0006.22,0005.16
